* Astronomy

Members Login
Username 
 
Password 
    Remember Me  
Post Info TOPIC: Asteroid 2011 CW46


L

Posts: 131433
Date:
Asteroid 2011 CW46
Permalink  
 


Orbital elements:
2011 CW46 Earth MOID = 0.0228 AU
Epoch 2011 Feb. 8.0 TT = JDT 2455600.5 MPC
M 80.77940 (2000.0) P Q
n 0.91644940 Peri. 77.38709 +0.68867642 -0.65526157
a 1.0496964 Node 322.16963 +0.29056754 +0.64164917
e 0.1562067 Incl. 30.40550 +0.66430061 +0.39864599
P 1.08 H 24.8 G 0.15 U 8

MPEC 2011 - C75


__________________
Page 1 of 1  sorted by
 
Quick Reply

Please log in to post quick replies.



Create your own FREE Forum
Report Abuse
Powered by ActiveBoard